Miscellaneous Local Product
Issued by NWS North Platte, NE

Home | Current Version | Previous Version | Text Only | Print | Product List | Glossary On
Versions: 1 2 3 4 5 6 7 8 9 10 11 12 13 14 15 16 17 18 19 20 21 22 23 24 25 26 27 28 29 30 31 32 33 34 35 36 37 38 39 40 41 42 43 44 45 46 47 48 49 50
000
AXUS43 KLBF 290110
MISLBF


WESTERN AND NORTH CENTRAL NEBRASKA HOURLY WEATHER ROUNDUP
NATIONAL WEATHER SERVICE NORTH PLATTE NE
800 PM CDT SAT MAR 28 2015

***STATIONS NOT REPORTING VARIABLES SUCH AS SKY/WEATHER OR
PRESSURE ARE PROVIDED BY THE NEBRASKA DEPARTMENT OF
ROADS...RAWS...AND APRS NETWORKS...AND ARE NOT UNDER
NATIONAL WEATHER SERVICE QUALITY CONTROL***

...OBSERVATIONS IN AND NEAR THE EASTERN PANHANDLE OF NEBRASKA...

CITY           SKY/WX    TMP DP  RH WIND       PRES   REMARKS
PINE RIDGE     MOCLDY    73  26  17 SW10      29.61F
CHADRON        PTCLDY    77  27  15 W12       29.63F
ALLIANCE       PTCLDY    73  28  18 W15       29.72F
SIDNEY         PTCLDY    69  25  19 W10       29.82R
CRESCENT LAKE    N/A     75  19  12 W9G25       N/A
$$

...OBSERVATIONS IN NORTH CENTRAL NEBRASKA...

CITY           SKY/WX    TMP DP  RH WIND       PRES   REMARKS
VALENTINE      CLEAR     72  34  24 S23G32    29.65F
THEDFORD       CLEAR     70  37  29 S21G29    29.74F
AINSWORTH      CLEAR     65  34  32 S24       29.71F
O`NEILL        CLEAR     56  35  44 SE18G24   29.81F
ORD            CLEAR     59  33  37 SE15      29.83F
BROKEN BOW     CLEAR     63  36  36 S17       29.81F
SPRINGVIEW       N/A     64  38  38 S12G22      N/A
SARGENT          N/A     60  36  40 SE9         N/A
COMSTOCK         N/A     65  38  36 S17         N/A
EWING            N/A     51  38  60 S9G16       N/A
$$

...OBSERVATIONS IN SOUTHWEST NEBRASKA AND FAR NORTHEAST COLORADO...

CITY           SKY/WX    TMP DP  RH WIND       PRES   REMARKS
WRAY           FAIR      74  22  14 S8        29.82F
IMPERIAL         N/A     74  25  16 SW10      29.78F
OGALLALA       CLEAR     71  30  21 W5        29.74F
NORTH PLATTE   CLEAR     67  35  30 SE15      29.78S
MCCOOK         CLEAR     72  35  25 SE16G25   29.80F
LEXINGTON      CLEAR     64  35  34 SE20      29.83F
BRADY            N/A     65  37  35 NE5         N/A
GOTHENBURG       N/A     68  34  28 SE16        N/A
CALLAWAY         N/A     66  39  37 S24         N/A
$$

...NORTH PLATTE AREA...

CITY           SKY/WX    TMP DP  RH WIND       PRES   REMARKS
AIRPORT        CLEAR     67  35  30 SE15      29.78S
DOWNTOWN         N/A     68  37  31 SE10        N/A
$$

...SOME WEATHER OBSERVATIONS FROM AROUND THE REGION...

CITY           SKY/WX    TMP DP  RH WIND       PRES   REMARKS
DENVER         PTCLDY    71  21  15 W14       29.93S
LARAMIE        MOCLDY    56  26  31 SW17      30.02S
CHEYENNE       PTCLDY    64  24  21 W23G36    29.94S
SCOTTSBLUFF    PTCLDY    75  26  16 W15G24    29.74F
RAPID CITY     PTCLDY    78  22  12 W20G31    29.55S
PIERRE         CLEAR     62  35  36 SE20      29.56F
WINNER         FAIR      66  33  29 S22G33    29.64F
SIOUX FALLS    CLEAR     49  27  42 S18G25    29.88F
OMAHA          PTCLDY    49  31  49 SE15      30.02F
GRAND ISLAND   CLEAR     56  34  43 SE12      29.92F
KANSAS CITY    CLEAR     47  31  53 SE15      30.10F
WICHITA        CLEAR     65  39  38 SE13      29.98S
HAYS           CLEAR     64  37  36 SE15      29.92F
LIBERAL        CLEAR     73  34  23 SE10      29.93S
GOODLAND       CLEAR     71  23  16 S9        29.87S
$$



USA.gov is the U.S. government's official web portal to all federal, state and local government web resources and services.